Location: Shannon
(40.5500°S, 175.4167°E)
Time: 08:23:52
(UTC+00:00)

Cosmos 614 Rocket - Pass Details

Date: 17 November 2025
Orbit: 728 x 757 km, 74.1° (Epoch: 14 December)

Event Time Altitude Azimuth Distance (km) Brightness Sun altitude
Exits shadow 15:45:05 10° 339° (NNW) 2,216 5.9 -11.2°
Maximum altitude 15:50:06 82° 252° (WSW) 751 3.9 -10.4°
Drops below altitude 10° 15:55:15 10° 162° (SSE) 2,268 7.3 -9.6°
Sets 15:57:38 0° 161° (SSE) 3,201 8.2 -9.3°
